Time,TemperatureF,DewpointF,PressureIn,WindDirection,WindDirectionDegrees,WindSpeedMPH,WindSpeedGustMPH,Humidity,HourlyPrecipIn,Conditions,Clouds,dailyrainin,SolarRadiationWatts/m^2,SoftwareType,DateUTC
2013-04-18 00:00:00,26.9,6.9,30.40,SSE,147,9.0,12.0,42,0.00,,,0.00,0,WeatherCatV1.15B25,2013-04-18 07:00:00,
2013-04-18 00:05:00,26.7,7.2,30.40,SSE,160,9.0,14.0,43,0.00,,,0.00,0,WeatherCatV1.15B25,2013-04-18 07:05:00,
2013-04-18 00:10:00,26.7,6.7,30.40,SSE,151,12.0,13.0,42,0.00,,,0.00,0,WeatherCatV1.15B25,2013-04-18 07:10:00,
2013-04-18 00:15:00,26.7,6.7,30.39,ESE,116,7.0,13.0,42,0.00,,,0.00,0,WeatherCatV1.15B25,2013-04-18 07:15:00,
2013-04-18 00:20:00,26.9,6.9,30.39,SSE,149,6.0,17.0,42,0.00,,,0.00,0,WeatherCatV1.15B25,2013-04-18 07:20:00,
2013-04-18 00:25:00,26.9,6.4,30.39,ENE,60,13.0,13.0,41,0.00,,,0.00,0,WeatherCatV1.15B25,2013-04-18 07:25:00,
2013-04-18 00:30:00,26.9,6.4,30.39,SE,137,7.0,12.0,41,0.00,,,0.00,0,WeatherCatV1.15B25,2013-04-18 07:30:00,
2013-04-18 00:35:00,26.9,6.9,30.39,SSE,151,10.0,14.0,42,0.00,,,0.00,0,WeatherCatV1.15B25,2013-04-18 07:35:00,
2013-04-18 00:40:00,26.9,6.4,30.39,ENE,61,3.0,15.0,41,0.00,,,0.00,0,WeatherCatV1.15B25,2013-04-18 07:40:00,
2013-04-18 00:45:00,26.7,6.7,30.39,SE,141,7.0,15.0,42,0.00,,,0.00,0,WeatherCatV1.15B25,2013-04-18 07:45:00,
2013-04-18 00:50:00,26.7,6.2,30.39,ENE,73,5.0,12.0,41,0.00,,,0.00,0,WeatherCatV1.15B25,2013-04-18 07:50:00,
2013-04-18 00:55:00,26.7,6.7,30.39,SE,141,4.0,11.0,42,0.00,,,0.00,0,WeatherCatV1.15B25,2013-04-18 07:55:00,
2013-04-18 01:00:00,26.6,7.2,30.39,ESE,117,4.0,12.0,43,0.00,,,0.00,0,WeatherCatV1.15B25,2013-04-18 08:00:00,
2013-04-18 01:05:00,26.4,7.0,30.39,ESE,118,9.0,9.0,43,0.00,,,0.00,0,WeatherCatV1.15B25,2013-04-18 08:05:00,
2013-04-18 01:10:00,26.4,7.0,30.39,East,93,4.0,14.0,43,0.00,,,0.00,0,WeatherCatV1.15B25,2013-04-18 08:10:00,
2013-04-18 01:15:00,26.3,7.4,30.38,SSE,156,4.0,6.0,44,0.00,,,0.00,0,WeatherCatV1.15B25,2013-04-18 08:15:00,
2013-04-18 01:20:00,26.1,7.2,30.38,ESE,116,7.0,13.0,44,0.00,,,0.00,0,WeatherCatV1.15B25,2013-04-18 08:20:00,
2013-04-18 01:25:00,26.1,6.7,30.38,SSE,164,4.0,16.0,43,0.00,,,0.00,0,WeatherCatV1.15B25,2013-04-18 08:25:00,
2013-04-18 01:30:00,26.0,6.6,30.37,SSE,152,11.0,15.0,43,0.00,,,0.00,0,WeatherCatV1.15B25,2013-04-18 08:30:00,
2013-04-18 01:35:00,26.0,6.6,30.37,SSE,160,11.0,12.0,43,0.00,,,0.00,0,WeatherCatV1.15B25,2013-04-18 08:35:00,
2013-04-18 01:40:00,26.0,7.1,30.37,SSE,164,9.0,11.0,44,0.00,,,0.00,0,WeatherCatV1.15B25,2013-04-18 08:40:00,
2013-04-18 01:45:00,26.0,7.6,30.36,SSE,150,6.0,9.0,45,0.00,,,0.00,0,WeatherCatV1.15B25,2013-04-18 08:45:00,
2013-04-18 01:50:00,25.8,7.4,30.36,ESE,111,14.0,14.0,45,0.00,,,0.00,0,WeatherCatV1.15B25,2013-04-18 08:50:00,
2013-04-18 01:55:00,25.7,6.8,30.36,ESE,102,5.0,10.0,44,0.00,,,0.00,0,WeatherCatV1.15B25,2013-04-18 08:55:00,
2013-04-18 02:00:00,25.6,6.7,30.37,SSE,148,6.0,13.0,44,0.00,,,0.00,0,WeatherCatV1.15B25,2013-04-18 09:00:00,
2013-04-18 02:05:00,25.7,6.8,30.37,ESE,111,10.0,12.0,44,0.00,,,0.00,0,WeatherCatV1.15B25,2013-04-18 09:05:00,
2013-04-18 02:10:00,25.7,6.3,30.37,SE,127,6.0,13.0,43,0.00,,,0.00,0,WeatherCatV1.15B25,2013-04-18 09:10:00,
2013-04-18 02:15:00,25.7,6.8,30.36,SSE,153,7.0,12.0,44,0.00,,,0.00,0,WeatherCatV1.15B25,2013-04-18 09:15:00,
2013-04-18 02:20:00,25.7,7.3,30.36,SE,128,6.0,13.0,45,0.00,,,0.00,0,WeatherCatV1.15B25,2013-04-18 09:20:00,
2013-04-18 02:25:00,25.7,6.8,30.36,ESE,119,9.0,11.0,44,0.00,,,0.00,0,WeatherCatV1.15B25,2013-04-18 09:25:00,
2013-04-18 02:30:00,25.8,6.9,30.36,ESE,108,9.0,11.0,44,0.00,,,0.00,0,WeatherCatV1.15B25,2013-04-18 09:30:00,
2013-04-18 02:35:00,25.8,6.4,30.36,SE,135,6.0,12.0,43,0.00,,,0.00,0,WeatherCatV1.15B25,2013-04-18 09:35:00,
2013-04-18 02:40:00,26.0,6.6,30.36,East,101,9.0,11.0,43,0.00,,,0.00,0,WeatherCatV1.15B25,2013-04-18 09:40:00,
2013-04-18 02:45:00,26.0,6.1,30.36,SSE,156,10.0,10.0,42,0.00,,,0.00,0,WeatherCatV1.15B25,2013-04-18 09:45:00,
2013-04-18 02:50:00,26.1,6.7,30.36,East,101,5.0,12.0,43,0.00,,,0.00,0,WeatherCatV1.15B25,2013-04-18 09:50:00,
2013-04-18 02:55:00,26.1,6.2,30.36,SE,124,8.0,11.0,42,0.00,,,0.00,0,WeatherCatV1.15B25,2013-04-18 09:55:00,
2013-04-18 03:00:00,26.1,6.2,30.36,East,101,3.0,12.0,42,0.00,,,0.00,0,WeatherCatV1.15B25,2013-04-18 10:00:00,
2013-04-18 03:05:00,26.3,5.8,30.36,SSE,159,7.0,18.0,41,0.00,,,0.00,0,WeatherCatV1.15B25,2013-04-18 10:05:00,
2013-04-18 03:10:00,26.3,6.4,30.36,SE,142,10.0,20.0,42,0.00,,,0.00,0,WeatherCatV1.15B25,2013-04-18 10:10:00,
2013-04-18 03:15:00,26.4,6.5,30.34,SSE,150,13.0,15.0,42,0.00,,,0.00,0,WeatherCatV1.15B25,2013-04-18 10:15:00,
2013-04-18 03:20:00,26.4,6.5,30.34,SE,132,2.0,13.0,42,0.00,,,0.00,0,WeatherCatV1.15B25,2013-04-18 10:20:00,
2013-04-18 03:25:00,26.1,6.2,30.34,ENE,76,3.0,12.0,42,0.00,,,0.00,0,WeatherCatV1.15B25,2013-04-18 10:25:00,
2013-04-18 03:30:00,26.1,6.7,30.34,SSE,154,3.0,10.0,43,0.00,,,0.00,0,WeatherCatV1.15B25,2013-04-18 10:30:00,
2013-04-18 03:35:00,26.0,6.6,30.34,SSE,151,10.0,11.0,43,0.00,,,0.00,0,WeatherCatV1.15B25,2013-04-18 10:35:00,
2013-04-18 03:40:00,26.0,6.6,30.34,SSE,155,8.0,12.0,43,0.00,,,0.00,0,WeatherCatV1.15B25,2013-04-18 10:40:00,
2013-04-18 03:45:00,26.0,6.6,30.35,SE,137,6.0,7.0,43,0.00,,,0.00,0,WeatherCatV1.15B25,2013-04-18 10:45:00,
2013-04-18 03:50:00,26.0,6.6,30.35,SSE,158,6.0,12.0,43,0.00,,,0.00,0,WeatherCatV1.15B25,2013-04-18 10:50:00,
2013-04-18 03:55:00,26.0,6.6,30.35,SE,145,5.0,10.0,43,0.00,,,0.00,0,WeatherCatV1.15B25,2013-04-18 10:55:00,
2013-04-18 04:00:00,26.0,6.6,30.34,ESE,123,6.0,6.0,43,0.00,,,0.00,0,WeatherCatV1.15B25,2013-04-18 11:00:00,
2013-04-18 04:05:00,26.0,6.6,30.34,SSE,158,5.0,10.0,43,0.00,,,0.00,0,WeatherCatV1.15B25,2013-04-18 11:05:00,
2013-04-18 04:10:00,26.0,6.6,30.34,SE,139,6.0,8.0,43,0.00,,,0.00,0,WeatherCatV1.15B25,2013-04-18 11:10:00,
2013-04-18 04:15:00,26.1,6.2,30.33,SE,141,5.0,7.0,42,0.00,,,0.00,0,WeatherCatV1.15B25,2013-04-18 11:15:00,
2013-04-18 04:20:00,26.1,6.2,30.33,ESE,118,4.0,9.0,42,0.00,,,0.00,0,WeatherCatV1.15B25,2013-04-18 11:20:00,
2013-04-18 04:25:00,26.1,6.2,30.33,SE,128,7.0,8.0,42,0.00,,,0.00,0,WeatherCatV1.15B25,2013-04-18 11:25:00,
2013-04-18 04:30:00,26.3,5.8,30.33,SE,129,5.0,9.0,41,0.00,,,0.00,0,WeatherCatV1.15B25,2013-04-18 11:30:00,
2013-04-18 04:35:00,26.6,6.1,30.33,ESE,118,5.0,8.0,41,0.00,,,0.00,0,WeatherCatV1.15B25,2013-04-18 11:35:00,
2013-04-18 04:40:00,26.7,6.2,30.33,SE,141,7.0,10.0,41,0.00,,,0.00,0,WeatherCatV1.15B25,2013-04-18 11:40:00,
2013-04-18 04:45:00,26.7,6.2,30.33,SE,132,6.0,9.0,41,0.00,,,0.00,0,WeatherCatV1.15B25,2013-04-18 11:45:00,
2013-04-18 04:50:00,26.9,5.8,30.33,SE,128,5.0,7.0,40,0.00,,,0.00,0,WeatherCatV1.15B25,2013-04-18 11:50:00,
2013-04-18 04:55:00,26.7,5.7,30.33,SSE,155,10.0,10.0,40,0.00,,,0.00,0,WeatherCatV1.15B25,2013-04-18 11:55:00,
2013-04-18 05:00:00,26.7,5.7,30.33,SSE,155,2.0,11.0,40,0.00,,,0.00,0,WeatherCatV1.15B25,2013-04-18 12:00:00,
2013-04-18 05:05:00,26.6,6.1,30.33,ESE,114,4.0,11.0,41,0.00,,,0.00,0,WeatherCatV1.15B25,2013-04-18 12:05:00,
2013-04-18 05:10:00,26.6,6.1,30.33,SE,144,7.0,7.0,41,0.00,,,0.00,0,WeatherCatV1.15B25,2013-04-18 12:10:00,
2013-04-18 05:15:00,26.6,6.1,30.35,ESE,123,5.0,6.0,41,0.00,,,0.00,0,WeatherCatV1.15B25,2013-04-18 12:15:00,
2013-04-18 05:20:00,26.7,5.7,30.35,ESE,118,4.0,9.0,40,0.00,,,0.00,0,WeatherCatV1.15B25,2013-04-18 12:20:00,
2013-04-18 05:25:00,26.7,6.2,30.35,SE,126,5.0,7.0,41,0.00,,,0.00,0,WeatherCatV1.15B25,2013-04-18 12:25:00,
2013-04-18 05:30:00,26.7,6.2,30.35,ESE,120,5.0,7.0,41,0.00,,,0.00,0,WeatherCatV1.15B25,2013-04-18 12:30:00,
2013-04-18 05:35:00,26.7,5.7,30.35,ESE,122,3.0,6.0,40,0.00,,,0.00,0,WeatherCatV1.15B25,2013-04-18 12:35:00,
2013-04-18 05:40:00,26.7,6.2,30.35,ESE,108,3.0,7.0,41,0.00,,,0.00,0,WeatherCatV1.15B25,2013-04-18 12:40:00,
2013-04-18 05:45:00,26.7,5.7,30.35,ESE,108,3.0,7.0,40,0.00,,,0.00,0,WeatherCatV1.15B25,2013-04-18 12:45:00,
2013-04-18 05:50:00,26.7,6.2,30.35,ESE,113,4.0,7.0,41,0.00,,,0.00,0,WeatherCatV1.15B25,2013-04-18 12:50:00,
2013-04-18 05:55:00,26.4,5.9,30.35,ESE,104,5.0,9.0,41,0.00,,,0.00,0,WeatherCatV1.15B25,2013-04-18 12:55:00,
2013-04-18 06:00:00,26.4,5.9,30.35,SE,141,7.0,9.0,41,0.00,,,0.00,0,WeatherCatV1.15B25,2013-04-18 13:00:00,
2013-04-18 06:05:00,26.4,5.9,30.35,SE,140,6.0,6.0,41,0.00,,,0.00,0,WeatherCatV1.15B25,2013-04-18 13:05:00,
2013-04-18 06:10:00,26.3,5.8,30.35,SE,144,8.0,8.0,41,0.00,,,0.00,0,WeatherCatV1.15B25,2013-04-18 13:10:00,
2013-04-18 06:15:00,26.4,5.9,30.38,ESE,118,6.0,6.0,41,0.00,,,0.00,5,WeatherCatV1.15B25,2013-04-18 13:15:00,
2013-04-18 06:20:00,26.6,6.1,30.38,SE,129,5.0,7.0,41,0.00,,,0.00,9,WeatherCatV1.15B25,2013-04-18 13:20:00,
2013-04-18 06:25:00,26.6,6.1,30.38,ESE,104,3.0,4.0,41,0.00,,,0.00,11,WeatherCatV1.15B25,2013-04-18 13:25:00,
2013-04-18 06:30:00,26.6,5.6,30.38,SE,137,4.0,6.0,40,0.00,,,0.00,14,WeatherCatV1.15B25,2013-04-18 13:30:00,
2013-04-18 06:35:00,26.7,5.7,30.38,SE,126,3.0,6.0,40,0.00,,,0.00,16,WeatherCatV1.15B25,2013-04-18 13:35:00,
2013-04-18 06:40:00,26.9,5.3,30.38,SSE,150,3.0,6.0,39,0.00,,,0.00,19,WeatherCatV1.15B25,2013-04-18 13:40:00,
2013-04-18 06:45:00,27.0,4.8,30.38,SE,146,7.0,10.0,38,0.00,,,0.00,26,WeatherCatV1.15B25,2013-04-18 13:45:00,
2013-04-18 06:50:00,27.5,5.3,30.38,ESE,112,7.0,9.0,38,0.00,,,0.00,35,WeatherCatV1.15B25,2013-04-18 13:50:00,
2013-04-18 06:55:00,27.6,5.4,30.38,ESE,111,4.0,9.0,38,0.00,,,0.00,47,WeatherCatV1.15B25,2013-04-18 13:55:00,
2013-04-18 07:00:00,28.2,5.9,30.36,ESE,123,3.0,9.0,38,0.00,,,0.00,54,WeatherCatV1.15B25,2013-04-18 14:00:00,
2013-04-18 07:05:00,28.4,6.1,30.36,ESE,114,3.0,9.0,38,0.00,,,0.00,53,WeatherCatV1.15B25,2013-04-18 14:05:00,
2013-04-18 07:10:00,28.4,5.5,30.36,SE,130,4.0,11.0,37,0.00,,,0.00,46,WeatherCatV1.15B25,2013-04-18 14:10:00,
2013-04-18 07:15:00,28.2,5.9,30.41,ESE,105,1.0,8.0,38,0.00,,,0.00,39,WeatherCatV1.15B25,2013-04-18 14:15:00,
2013-04-18 07:20:00,28.4,6.1,30.41,ESE,110,5.0,8.0,38,0.00,,,0.00,98,WeatherCatV1.15B25,2013-04-18 14:20:00,
2013-04-18 07:25:00,28.5,6.2,30.41,East,100,4.0,12.0,38,0.00,,,0.00,100,WeatherCatV1.15B25,2013-04-18 14:25:00,
2013-04-18 07:30:00,29.0,6.0,30.40,ESE,106,1.0,6.0,37,0.00,,,0.00,134,WeatherCatV1.15B25,2013-04-18 14:30:00,
2013-04-18 07:35:00,29.3,6.3,30.40,ESE,122,5.0,11.0,37,0.00,,,0.00,158,WeatherCatV1.15B25,2013-04-18 14:35:00,
2013-04-18 07:40:00,29.8,6.1,30.40,East,89,3.0,11.0,36,0.00,,,0.00,176,WeatherCatV1.15B25,2013-04-18 14:40:00,
2013-04-18 07:45:00,30.1,5.8,30.40,East,83,5.0,10.0,35,0.00,,,0.00,192,WeatherCatV1.15B25,2013-04-18 14:45:00,
2013-04-18 07:50:00,30.7,5.7,30.40,ESE,111,6.0,7.0,34,0.00,,,0.00,209,WeatherCatV1.15B25,2013-04-18 14:50:00,
2013-04-18 07:55:00,31.0,6.6,30.40,ENE,64,7.0,11.0,35,0.00,,,0.00,227,WeatherCatV1.15B25,2013-04-18 14:55:00,
2013-04-18 08:00:00,31.3,6.2,30.39,ESE,109,2.0,11.0,34,0.00,,,0.00,244,WeatherCatV1.15B25,2013-04-18 15:00:00,
2013-04-18 08:05:00,31.6,7.1,30.39,ESE,104,3.0,12.0,35,0.00,,,0.00,262,WeatherCatV1.15B25,2013-04-18 15:05:00,
2013-04-18 08:10:00,31.6,7.1,30.39,ESE,108,9.0,10.0,35,0.00,,,0.00,279,WeatherCatV1.15B25,2013-04-18 15:10:00,
2013-04-18 08:15:00,31.6,7.1,30.39,ESE,105,3.0,12.0,35,0.00,,,0.00,295,WeatherCatV1.15B25,2013-04-18 15:15:00,
2013-04-18 08:20:00,31.9,6.8,30.39,ESE,119,5.0,15.0,34,0.00,,,0.00,313,WeatherCatV1.15B25,2013-04-18 15:20:00,
2013-04-18 08:25:00,32.2,7.0,30.39,ESE,110,5.0,12.0,34,0.00,,,0.00,330,WeatherCatV1.15B25,2013-04-18 15:25:00,
2013-04-18 08:30:00,32.7,6.8,30.38,ESE,103,10.0,10.0,33,0.00,,,0.00,348,WeatherCatV1.15B25,2013-04-18 15:30:00,
2013-04-18 08:35:00,32.8,6.2,30.38,ESE,108,4.0,12.0,32,0.00,,,0.00,366,WeatherCatV1.15B25,2013-04-18 15:35:00,
2013-04-18 08:40:00,32.9,6.3,30.38,SE,140,5.0,7.0,32,0.00,,,0.00,383,WeatherCatV1.15B25,2013-04-18 15:40:00,
2013-04-18 08:46:00,33.4,6.1,30.38,ESE,106,5.0,12.0,31,0.00,,,0.00,403,WeatherCatV1.15B25,2013-04-18 15:46:00,
2013-04-18 08:51:00,33.7,5.6,30.38,ESE,118,6.0,10.0,30,0.00,,,0.00,422,WeatherCatV1.15B25,2013-04-18 15:51:00,
2013-04-18 08:56:00,33.7,5.6,30.38,ESE,103,4.0,11.0,30,0.00,,,0.00,439,WeatherCatV1.15B25,2013-04-18 15:56:00,
2013-04-18 09:01:00,34.0,5.1,30.38,ESE,115,8.0,10.0,29,0.00,,,0.00,454,WeatherCatV1.15B25,2013-04-18 16:01:00,
2013-04-18 09:06:00,34.3,4.6,30.38,ESE,103,1.0,12.0,28,0.00,,,0.00,471,WeatherCatV1.15B25,2013-04-18 16:06:00,
2013-04-18 09:11:00,34.4,4.7,30.38,East,97,3.0,11.0,28,0.00,,,0.00,487,WeatherCatV1.15B25,2013-04-18 16:11:00,
2013-04-18 09:16:00,34.6,4.9,30.39,ESE,102,3.0,13.0,28,0.00,,,0.00,504,WeatherCatV1.15B25,2013-04-18 16:16:00,
2013-04-18 09:22:00,34.7,5.0,30.39,East,101,3.0,12.0,28,0.00,,,0.00,524,WeatherCatV1.15B25,2013-04-18 16:22:00,
2013-04-18 09:27:00,35.0,5.2,30.39,SSE,150,11.0,15.0,28,0.00,,,0.00,540,WeatherCatV1.15B25,2013-04-18 16:27:00,
2013-04-18 09:32:00,35.5,4.9,30.39,SE,127,5.0,11.0,27,0.00,,,0.00,555,WeatherCatV1.15B25,2013-04-18 16:32:00,
2013-04-18 09:37:00,35.6,5.7,30.39,ESE,115,3.0,14.0,28,0.00,,,0.00,571,WeatherCatV1.15B25,2013-04-18 16:37:00,
2013-04-18 09:42:00,35.8,5.9,30.39,SE,133,13.0,16.0,28,0.00,,,0.00,585,WeatherCatV1.15B25,2013-04-18 16:42:00,
2013-04-18 09:47:00,35.8,5.9,30.37,ESE,114,0.0,11.0,28,0.00,,,0.00,599,WeatherCatV1.15B25,2013-04-18 16:47:00,
2013-04-18 09:52:00,36.0,5.3,30.37,ESE,120,5.0,11.0,27,0.00,,,0.00,615,WeatherCatV1.15B25,2013-04-18 16:52:00,
2013-04-18 09:57:00,36.3,5.6,30.37,ENE,73,10.0,13.0,27,0.00,,,0.00,629,WeatherCatV1.15B25,2013-04-18 16:57:00,
2013-04-18 10:02:00,36.6,5.8,30.38,ESE,107,9.0,13.0,27,0.00,,,0.00,645,WeatherCatV1.15B25,2013-04-18 17:02:00,
2013-04-18 10:07:00,37.2,6.3,30.38,East,97,3.0,10.0,27,0.00,,,0.00,659,WeatherCatV1.15B25,2013-04-18 17:07:00,
2013-04-18 10:12:00,37.3,7.2,30.38,ESE,112,5.0,7.0,28,0.00,,,0.00,670,WeatherCatV1.15B25,2013-04-18 17:12:00,
2013-04-18 10:17:00,37.8,6.9,30.39,ESE,116,7.0,7.0,27,0.00,,,0.00,686,WeatherCatV1.15B25,2013-04-18 17:17:00,
2013-04-18 10:22:00,37.9,6.9,30.39,SE,138,0.0,11.0,27,0.00,,,0.00,698,WeatherCatV1.15B25,2013-04-18 17:22:00,
2013-04-18 10:27:00,38.8,7.7,30.39,ESE,123,6.0,10.0,27,0.00,,,0.00,714,WeatherCatV1.15B25,2013-04-18 17:27:00,
2013-04-18 10:32:00,39.1,7.1,30.37,SSE,147,5.0,10.0,26,0.00,,,0.00,726,WeatherCatV1.15B25,2013-04-18 17:32:00,
2013-04-18 10:37:00,39.6,7.6,30.37,SSE,161,9.0,12.0,26,0.00,,,0.00,738,WeatherCatV1.15B25,2013-04-18 17:37:00,
2013-04-18 10:42:00,39.6,8.4,30.37,ESE,110,4.0,10.0,27,0.00,,,0.00,751,WeatherCatV1.15B25,2013-04-18 17:42:00,
2013-04-18 10:47:00,39.9,7.8,30.37,SE,137,7.0,12.0,26,0.00,,,0.00,761,WeatherCatV1.15B25,2013-04-18 17:47:00,
2013-04-18 10:52:00,39.8,7.7,30.37,ESE,120,6.0,11.0,26,0.00,,,0.00,773,WeatherCatV1.15B25,2013-04-18 17:52:00,
2013-04-18 10:57:00,39.8,7.7,30.37,ESE,106,3.0,9.0,26,0.00,,,0.00,784,WeatherCatV1.15B25,2013-04-18 17:57:00,
2013-04-18 11:02:00,40.5,6.6,30.37,East,101,8.0,11.0,24,0.00,,,0.00,795,WeatherCatV1.15B25,2013-04-18 18:02:00,
2013-04-18 11:07:00,40.8,8.6,30.37,ESE,123,6.0,12.0,26,0.00,,,0.00,805,WeatherCatV1.15B25,2013-04-18 18:07:00,
2013-04-18 11:12:00,41.2,7.2,30.37,ESE,113,6.0,11.0,24,0.00,,,0.00,816,WeatherCatV1.15B25,2013-04-18 18:12:00,
2013-04-18 11:17:00,41.3,8.2,30.36,ESE,107,5.0,10.0,25,0.00,,,0.00,824,WeatherCatV1.15B25,2013-04-18 18:17:00,
2013-04-18 11:22:00,41.8,7.7,30.36,ESE,108,4.0,10.0,24,0.00,,,0.00,833,WeatherCatV1.15B25,2013-04-18 18:22:00,
2013-04-18 11:27:00,42.1,6.0,30.36,SSE,151,10.0,11.0,22,0.00,,,0.00,844,WeatherCatV1.15B25,2013-04-18 18:27:00,
2013-04-18 11:32:00,42.2,8.9,30.36,ESE,121,9.0,13.0,25,0.00,,,0.00,851,WeatherCatV1.15B25,2013-04-18 18:32:00,
2013-04-18 11:37:00,42.3,8.1,30.36,ESE,119,5.0,12.0,24,0.00,,,0.00,861,WeatherCatV1.15B25,2013-04-18 18:37:00,
2013-04-18 11:42:00,42.6,7.4,30.36,East,97,0.0,10.0,23,0.00,,,0.00,868,WeatherCatV1.15B25,2013-04-18 18:42:00,
2013-04-18 11:47:00,42.9,7.7,30.34,East,91,4.0,11.0,23,0.00,,,0.00,877,WeatherCatV1.15B25,2013-04-18 18:47:00,
2013-04-18 11:52:00,43.5,9.1,30.34,SSE,153,0.0,11.0,24,0.00,,,0.00,884,WeatherCatV1.15B25,2013-04-18 18:52:00,
2013-04-18 11:57:00,44.1,8.7,30.34,SSE,157,0.0,10.0,23,0.00,,,0.00,891,WeatherCatV1.15B25,2013-04-18 18:57:00,
2013-04-18 12:02:00,44.3,7.9,30.34,SSE,150,6.0,18.0,22,0.00,,,0.00,896,WeatherCatV1.15B25,2013-04-18 19:02:00,
2013-04-18 12:07:00,44.2,9.7,30.34,ESE,103,2.0,10.0,24,0.00,,,0.00,902,WeatherCatV1.15B25,2013-04-18 19:07:00,
2013-04-18 12:12:00,44.3,8.9,30.34,ESE,112,5.0,11.0,23,0.00,,,0.00,907,WeatherCatV1.15B25,2013-04-18 19:12:00,
2013-04-18 12:17:00,44.5,10.9,30.35,ENE,76,3.0,4.0,25,0.00,,,0.00,912,WeatherCatV1.15B25,2013-04-18 19:17:00,
2013-04-18 12:22:00,45.8,10.1,30.35,East,89,0.0,3.0,23,0.00,,,0.00,919,WeatherCatV1.15B25,2013-04-18 19:22:00,
2013-04-18 12:27:00,47.0,12.1,30.35,ESE,107,2.0,6.0,24,0.00,,,0.00,923,WeatherCatV1.15B25,2013-04-18 19:27:00,
2013-04-18 12:32:00,47.6,11.7,30.32,South,178,0.0,1.0,23,0.00,,,0.00,926,WeatherCatV1.15B25,2013-04-18 19:32:00,
2013-04-18 12:37:00,47.4,9.5,30.32,SE,128,7.0,11.0,21,0.00,,,0.00,930,WeatherCatV1.15B25,2013-04-18 19:37:00,
2013-04-18 12:42:00,47.0,11.1,30.32,ESE,103,4.0,12.0,23,0.00,,,0.00,933,WeatherCatV1.15B25,2013-04-18 19:42:00,
2013-04-18 12:47:00,46.1,10.4,30.31,ENE,60,4.0,10.0,23,0.00,,,0.00,932,WeatherCatV1.15B25,2013-04-18 19:47:00,
2013-04-18 12:52:00,46.5,11.7,30.31,ESE,113,3.0,7.0,24,0.00,,,0.00,937,WeatherCatV1.15B25,2013-04-18 19:52:00,
2013-04-18 12:57:00,46.7,10.9,30.31,SSE,157,12.0,12.0,23,0.00,,,0.00,939,WeatherCatV1.15B25,2013-04-18 19:57:00,
2013-04-18 13:02:00,46.0,12.2,30.33,SE,137,0.0,5.0,25,0.00,,,0.00,939,WeatherCatV1.15B25,2013-04-18 20:02:00,
2013-04-18 13:07:00,46.5,11.7,30.33,East,101,0.0,7.0,24,0.00,,,0.00,939,WeatherCatV1.15B25,2013-04-18 20:07:00,
2013-04-18 13:12:00,47.3,11.4,30.33,ENE,72,0.0,6.0,23,0.00,,,0.00,939,WeatherCatV1.15B25,2013-04-18 20:12:00,
2013-04-18 13:17:00,48.2,12.2,30.33,East,95,0.0,11.0,23,0.00,,,0.00,942,WeatherCatV1.15B25,2013-04-18 20:17:00,
2013-04-18 13:22:00,49.2,11.0,30.33,SE,133,4.0,7.0,21,0.00,,,0.00,939,WeatherCatV1.15B25,2013-04-18 20:22:00,
2013-04-18 13:27:00,48.8,14.6,30.33,ESE,103,2.0,9.0,25,0.00,,,0.00,937,WeatherCatV1.15B25,2013-04-18 20:27:00,
2013-04-18 13:32:00,48.5,12.4,30.31,South,171,6.0,10.0,23,0.00,,,0.00,937,WeatherCatV1.15B25,2013-04-18 20:32:00,
2013-04-18 13:37:00,48.5,14.3,30.31,ENE,72,0.0,1.0,25,0.00,,,0.00,933,WeatherCatV1.15B25,2013-04-18 20:37:00,
2013-04-18 13:42:00,49.8,12.5,30.31,ESE,113,2.0,7.0,22,0.00,,,0.00,933,WeatherCatV1.15B25,2013-04-18 20:42:00,
2013-04-18 13:47:00,50.7,14.3,30.29,SSE,156,12.0,12.0,23,0.00,,,0.00,932,WeatherCatV1.15B25,2013-04-18 20:47:00,
2013-04-18 13:52:00,50.7,14.3,30.29,SE,126,0.0,1.0,23,0.00,,,0.00,926,WeatherCatV1.15B25,2013-04-18 20:52:00,
2013-04-18 13:57:00,50.5,12.0,30.29,East,93,2.0,6.0,21,0.00,,,0.00,921,WeatherCatV1.15B25,2013-04-18 20:57:00,
2013-04-18 14:02:00,51.0,11.4,30.30,South,182,6.0,8.0,20,0.00,,,0.00,919,WeatherCatV1.15B25,2013-04-18 21:02:00,
2013-04-18 14:07:00,50.4,13.0,30.30,South,171,2.0,7.0,22,0.00,,,0.00,912,WeatherCatV1.15B25,2013-04-18 21:07:00,
2013-04-18 14:12:00,51.1,13.6,30.30,ESE,110,0.0,4.0,22,0.00,,,0.00,907,WeatherCatV1.15B25,2013-04-18 21:12:00,
2013-04-18 14:17:00,51.7,13.0,30.30,ESE,103,1.0,5.0,21,0.00,,,0.00,904,WeatherCatV1.15B25,2013-04-18 21:17:00,
2013-04-18 14:22:00,52.5,13.7,30.30,ENE,76,3.0,10.0,21,0.00,,,0.00,898,WeatherCatV1.15B25,2013-04-18 21:22:00,
2013-04-18 14:27:00,51.7,11.9,30.30,ESE,110,0.0,4.0,20,0.00,,,0.00,891,WeatherCatV1.15B25,2013-04-18 21:27:00,
2013-04-18 14:32:00,51.9,13.2,30.28,SSE,164,2.0,5.0,21,0.00,,,0.00,886,WeatherCatV1.15B25,2013-04-18 21:32:00,
2013-04-18 14:37:00,51.7,11.9,30.28,South,170,0.0,5.0,20,0.00,,,0.00,877,WeatherCatV1.15B25,2013-04-18 21:37:00,
2013-04-18 14:42:00,51.7,13.0,30.28,ESE,103,0.0,6.0,21,0.00,,,0.00,870,WeatherCatV1.15B25,2013-04-18 21:42:00,
2013-04-18 14:47:00,53.1,11.9,30.27,SE,130,2.0,6.0,19,0.00,,,0.00,865,WeatherCatV1.15B25,2013-04-18 21:47:00,
2013-04-18 14:52:00,52.6,12.7,30.27,SSW,203,0.0,5.0,20,0.00,,,0.00,854,WeatherCatV1.15B25,2013-04-18 21:52:00,
2013-04-18 14:57:00,52.6,13.8,30.27,ENE,60,0.0,7.0,21,0.00,,,0.00,844,WeatherCatV1.15B25,2013-04-18 21:57:00,
2013-04-18 15:02:00,53.1,14.2,30.27,ESE,120,2.0,4.0,21,0.00,,,0.00,835,WeatherCatV1.15B25,2013-04-18 22:02:00,
2013-04-18 15:07:00,53.5,13.4,30.27,East,101,0.0,11.0,20,0.00,,,0.00,828,WeatherCatV1.15B25,2013-04-18 22:07:00,
2013-04-18 15:12:00,53.3,14.4,30.27,SSE,158,0.0,9.0,21,0.00,,,0.00,817,WeatherCatV1.15B25,2013-04-18 22:12:00,
2013-04-18 15:17:00,53.6,14.6,30.27,SE,145,5.0,5.0,21,0.00,,,0.00,805,WeatherCatV1.15B25,2013-04-18 22:17:00,
2013-04-18 15:22:00,53.5,15.6,30.27,SSE,153,8.0,10.0,22,0.00,,,0.00,796,WeatherCatV1.15B25,2013-04-18 22:22:00,
2013-04-18 15:27:00,52.5,14.8,30.27,SE,125,1.0,6.0,22,0.00,,,0.00,786,WeatherCatV1.15B25,2013-04-18 22:27:00,
2013-04-18 15:32:00,52.2,14.5,30.27,East,97,0.0,5.0,22,0.00,,,0.00,772,WeatherCatV1.15B25,2013-04-18 22:32:00,
2013-04-18 15:37:00,51.9,13.2,30.27,SE,146,4.0,11.0,21,0.00,,,0.00,759,WeatherCatV1.15B25,2013-04-18 22:37:00,
2013-04-18 15:42:00,52.5,14.8,30.27,East,97,0.0,7.0,22,0.00,,,0.00,751,WeatherCatV1.15B25,2013-04-18 22:42:00,
2013-04-18 15:47:00,52.5,13.7,30.27,East,97,0.0,4.0,21,0.00,,,0.00,738,WeatherCatV1.15B25,2013-04-18 22:47:00,
2013-04-18 15:52:00,52.8,15.0,30.27,SE,133,0.0,5.0,22,0.00,,,0.00,724,WeatherCatV1.15B25,2013-04-18 22:52:00,
2013-04-18 15:57:00,52.3,14.6,30.27,ESE,103,1.0,7.0,22,0.00,,,0.00,715,WeatherCatV1.15B25,2013-04-18 22:57:00,
2013-04-18 16:02:00,51.4,13.9,30.27,SSE,148,0.0,0.0,22,0.00,,,0.00,701,WeatherCatV1.15B25,2013-04-18 23:02:00,
2013-04-18 16:07:00,51.6,15.0,30.27,ESE,110,0.0,4.0,23,0.00,,,0.00,686,WeatherCatV1.15B25,2013-04-18 23:07:00,
2013-04-18 16:12:00,52.2,14.5,30.27,ENE,70,0.0,1.0,22,0.00,,,0.00,671,WeatherCatV1.15B25,2013-04-18 23:12:00,
2013-04-18 16:17:00,52.5,14.8,30.25,East,97,0.0,6.0,22,0.00,,,0.00,657,WeatherCatV1.15B25,2013-04-18 23:17:00,
2013-04-18 16:22:00,52.2,14.5,30.25,SSE,156,1.0,9.0,22,0.00,,,0.00,642,WeatherCatV1.15B25,2013-04-18 23:22:00,
2013-04-18 16:27:00,52.2,14.5,30.25,ESE,114,9.0,9.0,22,0.00,,,0.00,628,WeatherCatV1.15B25,2013-04-18 23:27:00,
2013-04-18 16:32:00,51.7,15.1,30.26,SSE,158,0.0,6.0,23,0.00,,,0.00,615,WeatherCatV1.15B25,2013-04-18 23:32:00,
2013-04-18 16:37:00,51.9,14.3,30.26,East,88,1.0,6.0,22,0.00,,,0.00,598,WeatherCatV1.15B25,2013-04-18 23:37:00,
2013-04-18 16:42:00,52.2,15.5,30.26,SE,133,3.0,6.0,23,0.00,,,0.00,584,WeatherCatV1.15B25,2013-04-18 23:42:00,
2013-04-18 16:47:00,51.7,15.1,30.26,East,97,2.0,9.0,23,0.00,,,0.00,568,WeatherCatV1.15B25,2013-04-18 23:47:00,
2013-04-18 16:52:00,51.3,14.8,30.26,SE,144,5.0,6.0,23,0.00,,,0.00,552,WeatherCatV1.15B25,2013-04-18 23:52:00,
2013-04-18 16:57:00,50.8,15.3,30.26,SE,130,4.0,6.0,24,0.00,,,0.00,534,WeatherCatV1.15B25,2013-04-18 23:57:00,
2013-04-18 17:02:00,50.4,15.0,30.26,ESE,105,3.0,5.0,24,0.00,,,0.00,517,WeatherCatV1.15B25,2013-04-19 00:02:00,
2013-04-18 17:07:00,50.1,13.8,30.26,SSE,158,1.0,10.0,23,0.00,,,0.00,504,WeatherCatV1.15B25,2013-04-19 00:07:00,
2013-04-18 17:12:00,49.9,14.6,30.26,ESE,120,4.0,10.0,24,0.00,,,0.00,487,WeatherCatV1.15B25,2013-04-19 00:12:00,
2013-04-18 17:17:00,49.8,14.5,30.28,ESE,114,5.0,5.0,24,0.00,,,0.00,469,WeatherCatV1.15B25,2013-04-19 00:17:00,
2013-04-18 17:22:00,50.5,15.1,30.28,ESE,102,5.0,6.0,24,0.00,,,0.00,452,WeatherCatV1.15B25,2013-04-19 00:22:00,
2013-04-18 17:27:00,50.4,15.0,30.28,SSW,198,9.0,9.0,24,0.00,,,0.00,432,WeatherCatV1.15B25,2013-04-19 00:27:00,
2013-04-18 17:32:00,50.4,15.0,30.28,SSE,151,6.0,9.0,24,0.00,,,0.00,417,WeatherCatV1.15B25,2013-04-19 00:32:00,
2013-04-18 17:37:00,50.1,15.7,30.28,ESE,110,1.0,4.0,25,0.00,,,0.00,401,WeatherCatV1.15B25,2013-04-19 00:37:00,
2013-04-18 17:42:00,50.4,15.0,30.28,East,93,3.0,5.0,24,0.00,,,0.00,383,WeatherCatV1.15B25,2013-04-19 00:42:00,
2013-04-18 17:47:00,50.5,15.1,30.28,SE,135,3.0,7.0,24,0.00,,,0.00,364,WeatherCatV1.15B25,2013-04-19 00:47:00,
2013-04-18 17:52:00,50.2,14.8,30.28,SE,145,4.0,4.0,24,0.00,,,0.00,346,WeatherCatV1.15B25,2013-04-19 00:52:00,
2013-04-18 17:57:00,50.1,13.8,30.28,ESE,121,2.0,7.0,23,0.00,,,0.00,327,WeatherCatV1.15B25,2013-04-19 00:57:00,
2013-04-18 18:02:00,50.4,15.0,30.28,ESE,107,0.0,0.0,24,0.00,,,0.00,309,WeatherCatV1.15B25,2013-04-19 01:02:00,
2013-04-18 18:07:00,50.1,14.7,30.28,ENE,73,0.0,4.0,24,0.00,,,0.00,290,WeatherCatV1.15B25,2013-04-19 01:07:00,
2013-04-18 18:12:00,49.9,14.6,30.28,SE,140,0.0,5.0,24,0.00,,,0.00,274,WeatherCatV1.15B25,2013-04-19 01:12:00,
2013-04-18 18:17:00,49.8,15.4,30.26,SE,124,4.0,5.0,25,0.00,,,0.00,255,WeatherCatV1.15B25,2013-04-19 01:17:00,
2013-04-18 18:22:00,49.2,14.9,30.26,SE,141,1.0,4.0,25,0.00,,,0.00,236,WeatherCatV1.15B25,2013-04-19 01:22:00,
2013-04-18 18:27:00,48.9,15.5,30.26,SE,140,3.0,4.0,26,0.00,,,0.00,218,WeatherCatV1.15B25,2013-04-19 01:27:00,
2013-04-18 18:32:00,48.8,14.6,30.28,SE,127,0.0,2.0,25,0.00,,,0.00,200,WeatherCatV1.15B25,2013-04-19 01:32:00,
2013-04-18 18:37:00,49.1,14.8,30.28,ESE,116,0.0,3.0,25,0.00,,,0.00,183,WeatherCatV1.15B25,2013-04-19 01:37:00,
2013-04-18 18:42:00,49.1,14.8,30.28,SE,134,3.0,6.0,25,0.00,,,0.00,165,WeatherCatV1.15B25,2013-04-19 01:42:00,
2013-04-18 18:47:00,49.1,14.8,30.28,ESE,122,0.0,4.0,25,0.00,,,0.00,149,WeatherCatV1.15B25,2013-04-19 01:47:00,
2013-04-18 18:52:00,48.8,14.6,30.28,East,101,0.0,4.0,25,0.00,,,0.00,132,WeatherCatV1.15B25,2013-04-19 01:52:00,
2013-04-18 18:57:00,48.3,14.1,30.28,ESE,108,0.0,3.0,25,0.00,,,0.00,116,WeatherCatV1.15B25,2013-04-19 01:57:00,
2013-04-18 19:02:00,48.0,14.8,30.28,ESE,112,0.0,1.0,26,0.00,,,0.00,98,WeatherCatV1.15B25,2013-04-19 02:02:00,
2013-04-18 19:07:00,48.0,13.9,30.28,East,86,0.0,1.0,25,0.00,,,0.00,83,WeatherCatV1.15B25,2013-04-19 02:07:00,
2013-04-18 19:12:00,47.6,14.4,30.28,ESE,122,2.0,4.0,26,0.00,,,0.00,69,WeatherCatV1.15B25,2013-04-19 02:12:00,
2013-04-18 19:17:00,46.7,13.7,30.27,ENE,64,1.0,5.0,26,0.00,,,0.00,54,WeatherCatV1.15B25,2013-04-19 02:17:00,
2013-04-18 19:22:00,45.7,13.7,30.27,NE,35,3.0,7.0,27,0.00,,,0.00,42,WeatherCatV1.15B25,2013-04-19 02:22:00,
2013-04-18 19:27:00,44.9,13.8,30.27,ENE,78,5.0,5.0,28,0.00,,,0.00,30,WeatherCatV1.15B25,2013-04-19 02:27:00,
2013-04-18 19:32:00,44.2,13.2,30.29,NE,41,7.0,7.0,28,0.00,,,0.00,19,WeatherCatV1.15B25,2013-04-19 02:32:00,
2013-04-18 19:37:00,43.5,12.6,30.29,NNE,26,6.0,10.0,28,0.00,,,0.00,7,WeatherCatV1.15B25,2013-04-19 02:37:00,
2013-04-18 19:42:00,43.2,12.3,30.29,East,83,2.0,7.0,28,0.00,,,0.00,0,WeatherCatV1.15B25,2013-04-19 02:42:00,
2013-04-18 19:47:00,42.8,12.0,30.30,ENE,63,1.0,10.0,28,0.00,,,0.00,0,WeatherCatV1.15B25,2013-04-19 02:47:00,
2013-04-18 19:52:00,42.5,13.3,30.30,NNE,22,10.0,11.0,30,0.00,,,0.00,0,WeatherCatV1.15B25,2013-04-19 02:52:00,
2013-04-18 19:57:00,42.2,11.5,30.30,NE,51,0.0,11.0,28,0.00,,,0.00,0,WeatherCatV1.15B25,2013-04-19 02:57:00,
2013-04-18 20:02:00,42.1,12.2,30.32,WNW,293,1.0,3.0,29,0.00,,,0.00,0,WeatherCatV1.15B25,2013-04-19 03:02:00,
2013-04-18 20:07:00,41.9,13.5,30.32,South,172,0.0,4.0,31,0.00,,,0.00,0,WeatherCatV1.15B25,2013-04-19 03:07:00,
2013-04-18 20:12:00,41.6,12.5,30.32,East,94,4.0,6.0,30,0.00,,,0.00,0,WeatherCatV1.15B25,2013-04-19 03:12:00,
2013-04-18 20:17:00,41.5,13.1,30.29,ENE,78,11.0,11.0,31,0.00,,,0.00,0,WeatherCatV1.15B25,2013-04-19 03:17:00,
2013-04-18 20:22:00,41.3,12.2,30.29,ESE,103,0.0,8.0,30,0.00,,,0.00,0,WeatherCatV1.15B25,2013-04-19 03:22:00,
2013-04-18 20:27:00,41.2,12.1,30.29,East,101,4.0,9.0,30,0.00,,,0.00,0,WeatherCatV1.15B25,2013-04-19 03:27:00,
2013-04-18 20:32:00,41.1,12.8,30.32,SE,137,5.0,5.0,31,0.00,,,0.00,0,WeatherCatV1.15B25,2013-04-19 03:32:00,
2013-04-18 20:37:00,41.1,12.1,30.32,East,87,3.0,4.0,30,0.00,,,0.00,0,WeatherCatV1.15B25,2013-04-19 03:37:00,
2013-04-18 20:42:00,40.9,11.9,30.32,ENE,60,0.0,3.0,30,0.00,,,0.00,0,WeatherCatV1.15B25,2013-04-19 03:42:00,
2013-04-18 20:47:00,40.8,12.5,30.33,SSE,150,4.0,7.0,31,0.00,,,0.00,0,WeatherCatV1.15B25,2013-04-19 03:47:00,
2013-04-18 20:52:00,40.6,11.6,30.33,SSE,147,6.0,6.0,30,0.00,,,0.00,0,WeatherCatV1.15B25,2013-04-19 03:52:00,
2013-04-18 20:57:00,40.5,12.3,30.33,East,97,3.0,9.0,31,0.00,,,0.00,0,WeatherCatV1.15B25,2013-04-19 03:57:00,
2013-04-18 21:01:00,40.5,12.3,30.33,South,169,0.0,9.0,31,0.00,,,0.00,0,WeatherCatV1.15B25,2013-04-19 04:01:00,
2013-04-18 21:02:00,40.3,12.8,30.33,SE,132,0.0,9.0,32,0.00,,,0.00,0,WeatherCatV1.15B25,2013-04-19 04:02:00,
2013-04-18 21:05:00,40.3,14.2,30.33,ESE,118,3.0,10.0,34,0.00,,,0.00,0,WeatherCatV1.15B25,2013-04-19 04:05:00,
2013-04-18 21:06:00,40.3,14.2,30.33,SSE,153,5.0,10.0,34,0.00,,,0.00,0,WeatherCatV1.15B25,2013-04-19 04:06:00,
2013-04-18 21:08:00,40.2,14.8,30.33,SE,124,5.0,7.0,35,0.00,,,0.00,0,WeatherCatV1.15B25,2013-04-19 04:08:00,
2013-04-18 21:13:00,40.1,15.3,30.33,SE,131,3.0,12.0,36,0.00,,,0.00,0,WeatherCatV1.15B25,2013-04-19 04:13:00,
2013-04-18 21:18:00,39.9,15.1,30.31,East,89,0.0,5.0,36,0.00,,,0.00,0,WeatherCatV1.15B25,2013-04-19 04:18:00,
2013-04-18 21:23:00,39.8,15.7,30.31,ESE,114,7.0,14.0,37,0.00,,,0.00,0,WeatherCatV1.15B25,2013-04-19 04:23:00,
2013-04-18 21:28:00,39.6,15.5,30.31,East,80,0.0,6.0,37,0.00,,,0.00,0,WeatherCatV1.15B25,2013-04-19 04:28:00,
2013-04-18 21:33:00,39.6,15.5,30.32,ESE,112,10.0,13.0,37,0.00,,,0.00,0,WeatherCatV1.15B25,2013-04-19 04:33:00,
2013-04-18 21:38:00,39.6,16.1,30.32,South,173,8.0,10.0,38,0.00,,,0.00,0,WeatherCatV1.15B25,2013-04-19 04:38:00,
2013-04-18 21:43:00,39.5,15.4,30.32,NE,45,4.0,11.0,37,0.00,,,0.00,0,WeatherCatV1.15B25,2013-04-19 04:43:00,
2013-04-18 21:48:00,39.3,15.2,30.31,NNE,20,13.0,15.0,37,0.00,,,0.00,0,WeatherCatV1.15B25,2013-04-19 04:48:00,
2013-04-18 21:53:00,39.3,15.2,30.31,ESE,108,0.0,10.0,37,0.00,,,0.00,0,WeatherCatV1.15B25,2013-04-19 04:53:00,
2013-04-18 21:58:00,39.3,15.2,30.31,SSE,166,5.0,7.0,37,0.00,,,0.00,0,WeatherCatV1.15B25,2013-04-19 04:58:00,
2013-04-18 22:03:00,39.2,15.8,30.31,ESE,120,2.0,6.0,38,0.00,,,0.00,0,WeatherCatV1.15B25,2013-04-19 05:03:00,
2013-04-18 22:08:00,39.1,15.1,30.31,SSE,151,1.0,12.0,37,0.00,,,0.00,0,WeatherCatV1.15B25,2013-04-19 05:08:00,
2013-04-18 22:13:00,38.9,15.5,30.31,SSE,155,0.0,5.0,38,0.00,,,0.00,0,WeatherCatV1.15B25,2013-04-19 05:13:00,
2013-04-18 22:18:00,38.9,14.9,30.31,SE,144,3.0,5.0,37,0.00,,,0.00,0,WeatherCatV1.15B25,2013-04-19 05:18:00,
2013-04-18 22:23:00,38.8,14.8,30.31,SSE,151,3.0,5.0,37,0.00,,,0.00,0,WeatherCatV1.15B25,2013-04-19 05:23:00,
2013-04-18 22:28:00,38.6,13.3,30.31,SSE,155,6.0,7.0,35,0.00,,,0.00,0,WeatherCatV1.15B25,2013-04-19 05:28:00,
2013-04-18 22:33:00,38.6,12.7,30.31,SSE,147,8.0,10.0,34,0.00,,,0.00,0,WeatherCatV1.15B25,2013-04-19 05:33:00,
2013-04-18 22:38:00,38.8,12.2,30.31,SSE,157,4.0,10.0,33,0.00,,,0.00,0,WeatherCatV1.15B25,2013-04-19 05:38:00,
2013-04-18 22:43:00,38.8,13.5,30.31,SSE,148,3.0,4.0,35,0.00,,,0.00,0,WeatherCatV1.15B25,2013-04-19 05:43:00,
2013-04-18 22:48:00,38.6,14.0,30.31,East,90,3.0,3.0,36,0.00,,,0.00,0,WeatherCatV1.15B25,2013-04-19 05:48:00,
2013-04-18 22:53:00,38.6,14.6,30.31,SE,137,3.0,5.0,37,0.00,,,0.00,0,WeatherCatV1.15B25,2013-04-19 05:53:00,
2013-04-18 22:58:00,38.6,14.0,30.31,SE,137,0.0,1.0,36,0.00,,,0.00,0,WeatherCatV1.15B25,2013-04-19 05:58:00,
2013-04-18 23:03:00,38.6,14.0,30.31,SE,138,3.0,5.0,36,0.00,,,0.00,0,WeatherCatV1.15B25,2013-04-19 06:03:00,
2013-04-18 23:08:00,38.6,13.3,30.31,SE,138,2.0,5.0,35,0.00,,,0.00,0,WeatherCatV1.15B25,2013-04-19 06:08:00,
2013-04-18 23:13:00,38.5,13.9,30.31,SE,126,3.0,3.0,36,0.00,,,0.00,0,WeatherCatV1.15B25,2013-04-19 06:13:00,
2013-04-18 23:18:00,38.5,14.5,30.28,SE,136,3.0,6.0,37,0.00,,,0.00,0,WeatherCatV1.15B25,2013-04-19 06:18:00,
2013-04-18 23:23:00,38.5,13.3,30.28,SSE,147,4.0,4.0,35,0.00,,,0.00,0,WeatherCatV1.15B25,2013-04-19 06:23:00,
2013-04-18 23:28:00,38.6,13.3,30.28,SSE,154,4.0,6.0,35,0.00,,,0.00,0,WeatherCatV1.15B25,2013-04-19 06:28:00,
2013-04-18 23:33:00,38.6,13.3,30.27,SSE,149,5.0,6.0,35,0.00,,,0.00,0,WeatherCatV1.15B25,2013-04-19 06:33:00,
2013-04-18 23:38:00,38.6,14.0,30.27,SE,146,6.0,9.0,36,0.00,,,0.00,0,WeatherCatV1.15B25,2013-04-19 06:38:00,
2013-04-18 23:43:00,38.6,14.0,30.27,SSE,147,6.0,6.0,36,0.00,,,0.00,0,WeatherCatV1.15B25,2013-04-19 06:43:00,
2013-04-18 23:48:00,38.8,14.8,30.27,SSE,151,7.0,9.0,37,0.00,,,0.00,0,WeatherCatV1.15B25,2013-04-19 06:48:00,
2013-04-18 23:53:00,38.8,14.2,30.27,SE,143,5.0,6.0,36,0.00,,,0.00,0,WeatherCatV1.15B25,2013-04-19 06:53:00,
2013-04-18 23:58:00,38.8,14.2,30.27,SSE,148,1.0,4.0,36,0.00,,,0.00,0,WeatherCatV1.15B25,2013-04-19 06:58:00,